Time,TemperatureF,DewpointF,PressureIn,WindDirection,WindDirectionDegrees,WindSpeedMPH,WindSpeedGustMPH,Humidity,HourlyPrecipIn,Conditions,Clouds,dailyrainin,SoftwareType,DateUTC
2013-02-02 00:01:00,36.0,-99.9,-100.00,North,-999,0.0,0.0,-999,-99.99,,,0.00,,2013-02-02 08:01:00,
2013-02-02 00:11:00,35.0,-99.9,-100.00,North,-999,0.0,0.0,-999,-99.99,,,0.00,,2013-02-02 08:11:00,
2013-02-02 00:22:00,35.0,-99.9,-100.00,North,-999,0.0,0.0,-999,-99.99,,,0.00,,2013-02-02 08:22:00,
2013-02-02 00:32:00,34.0,-99.9,-100.00,North,-999,0.0,0.0,-999,-99.99,,,0.00,,2013-02-02 08:32:00,
2013-02-02 00:42:00,34.0,-99.9,-100.00,North,-999,0.0,0.0,-999,-99.99,,,0.00,,2013-02-02 08:42:00,
2013-02-02 00:53:00,34.0,-99.9,-100.00,North,-999,0.0,0.0,-999,-99.99,,,0.00,,2013-02-02 08:53:00,
2013-02-02 01:02:00,33.0,-99.9,-100.00,North,-999,0.0,0.0,-999,-99.99,,,0.00,,2013-02-02 09:02:00,
2013-02-02 01:11:00,33.0,-99.9,-100.00,North,-999,0.0,0.0,-999,-99.99,,,0.00,,2013-02-02 09:11:00,
2013-02-02 01:22:00,33.0,-99.9,-100.00,North,-999,0.0,0.0,-999,-99.99,,,0.00,,2013-02-02 09:22:00,
2013-02-02 01:32:00,34.0,-99.9,-100.00,North,-999,0.0,0.0,-999,-99.99,,,0.00,,2013-02-02 09:32:00,
2013-02-02 01:42:00,35.0,-99.9,-100.00,North,-999,0.0,0.0,-999,-99.99,,,0.00,,2013-02-02 09:42:00,
2013-02-02 01:52:00,35.0,-99.9,-100.00,North,-999,0.0,0.0,-999,-99.99,,,0.00,,2013-02-02 09:52:00,
2013-02-02 02:02:00,35.0,-99.9,-100.00,North,-999,0.0,0.0,-999,-99.99,,,0.00,,2013-02-02 10:02:00,
2013-02-02 02:11:00,35.0,-99.9,-100.00,North,-999,0.0,0.0,-999,-99.99,,,0.00,,2013-02-02 10:11:00,
2013-02-02 02:22:00,35.0,-99.9,-100.00,North,-999,0.0,0.0,-999,-99.99,,,0.00,,2013-02-02 10:22:00,
2013-02-02 02:32:00,35.0,-99.9,-100.00,North,-999,0.0,0.0,-999,-99.99,,,0.00,,2013-02-02 10:32:00,
2013-02-02 02:42:00,35.0,-99.9,-100.00,SW,225,3.0,3.0,-999,-99.99,,,0.00,,2013-02-02 10:42:00,
2013-02-02 02:52:00,35.0,-99.9,-100.00,SW,225,3.0,3.0,-999,-99.99,,,0.00,,2013-02-02 10:52:00,
2013-02-02 03:02:00,35.0,-99.9,-100.00,North,-999,0.0,0.0,-999,-99.99,,,0.00,,2013-02-02 11:02:00,
2013-02-02 03:11:00,35.0,-99.9,-100.00,North,-999,0.0,0.0,-999,-99.99,,,0.00,,2013-02-02 11:11:00,
2013-02-02 03:22:00,35.0,-99.9,-100.00,North,-999,0.0,0.0,-999,-99.99,,,0.00,,2013-02-02 11:22:00,
2013-02-02 03:32:00,35.0,-99.9,-100.00,North,-999,0.0,0.0,-999,-99.99,,,0.00,,2013-02-02 11:32:00,
2013-02-02 03:42:00,35.0,-99.9,-100.00,North,-999,0.0,0.0,-999,-99.99,,,0.00,,2013-02-02 11:42:00,
2013-02-02 03:52:00,35.0,-99.9,-100.00,North,-999,0.0,0.0,-999,-99.99,,,0.00,,2013-02-02 11:52:00,
2013-02-02 04:02:00,35.0,-99.9,-100.00,North,-999,0.0,0.0,-999,-99.99,,,0.00,,2013-02-02 12:02:00,
2013-02-02 04:12:00,35.0,-99.9,-100.00,North,-999,0.0,0.0,-999,-99.99,,,0.00,,2013-02-02 12:12:00,
2013-02-02 04:32:00,35.0,-99.9,-100.00,North,-999,0.0,0.0,-999,-99.99,,,0.00,,2013-02-02 12:32:00,
2013-02-02 04:42:00,35.0,-99.9,-100.00,SW,225,3.0,3.0,-999,-99.99,,,0.00,,2013-02-02 12:42:00,
2013-02-02 04:53:00,35.0,-99.9,-100.00,SW,225,3.0,3.0,-999,-99.99,,,0.00,,2013-02-02 12:53:00,
2013-02-02 05:03:00,36.0,-99.9,-100.00,North,-999,0.0,0.0,-999,-99.99,,,0.00,,2013-02-02 13:03:00,
2013-02-02 05:11:00,35.0,-99.9,-100.00,North,-999,0.0,0.0,-999,-99.99,,,0.00,,2013-02-02 13:11:00,
2013-02-02 05:22:00,35.0,-99.9,-100.00,North,-999,0.0,0.0,-999,-99.99,,,0.00,,2013-02-02 13:22:00,
2013-02-02 05:33:00,34.0,-99.9,-100.00,North,-999,0.0,0.0,-999,-99.99,,,0.00,,2013-02-02 13:33:00,
2013-02-02 05:43:00,34.0,-99.9,-100.00,North,-999,0.0,0.0,-999,-99.99,,,0.00,,2013-02-02 13:43:00,
2013-02-02 05:52:00,34.0,-99.9,-100.00,North,-999,0.0,0.0,-999,-99.99,,,0.00,,2013-02-02 13:52:00,
2013-02-02 06:03:00,35.0,-99.9,-100.00,SW,225,3.0,3.0,-999,-99.99,,,0.00,,2013-02-02 14:03:00,
2013-02-02 06:12:00,35.0,-99.9,-100.00,North,-999,0.0,0.0,-999,-99.99,,,0.00,,2013-02-02 14:12:00,
2013-02-02 06:22:00,35.0,-99.9,-100.00,North,-999,0.0,0.0,-999,-99.99,,,0.00,,2013-02-02 14:22:00,
2013-02-02 06:33:00,35.0,-99.9,-100.00,North,-999,0.0,0.0,-999,-99.99,,,0.00,,2013-02-02 14:33:00,
2013-02-02 06:42:00,35.0,-99.9,-100.00,North,-999,0.0,0.0,-999,-99.99,,,0.00,,2013-02-02 14:42:00,
2013-02-02 06:52:00,35.0,-99.9,-100.00,North,-999,0.0,0.0,-999,-99.99,,,0.00,,2013-02-02 14:52:00,
2013-02-02 07:03:00,34.0,-99.9,-100.00,North,-999,0.0,0.0,-999,-99.99,,,0.00,,2013-02-02 15:03:00,
2013-02-02 07:13:00,34.0,-99.9,-100.00,SW,225,4.0,4.0,-999,-99.99,,,0.00,,2013-02-02 15:13:00,
2013-02-02 07:22:00,34.0,-99.9,-100.00,SW,225,4.0,4.0,-999,-99.99,,,0.00,,2013-02-02 15:22:00,
2013-02-02 07:33:00,34.0,-99.9,-100.00,SW,225,2.0,2.0,-999,-99.99,,,0.00,,2013-02-02 15:33:00,
2013-02-02 07:42:00,34.0,-99.9,-100.00,SW,225,3.0,3.0,-999,-99.99,,,0.00,,2013-02-02 15:42:00,
2013-02-02 07:52:00,34.0,-99.9,-100.00,SW,225,3.0,3.0,-999,-99.99,,,0.00,,2013-02-02 15:52:00,
2013-02-02 08:03:00,35.0,-99.9,-100.00,South,180,3.0,3.0,-999,-99.99,,,0.00,,2013-02-02 16:03:00,
2013-02-02 08:12:00,34.0,-99.9,-100.00,SW,225,3.0,3.0,-999,-99.99,,,0.00,,2013-02-02 16:12:00,
2013-02-02 08:23:00,34.0,-99.9,-100.00,SW,225,3.0,3.0,-999,-99.99,,,0.00,,2013-02-02 16:23:00,
2013-02-02 08:32:00,35.0,-99.9,-100.00,SW,225,4.0,4.0,-999,-99.99,,,0.00,,2013-02-02 16:32:00,
2013-02-02 08:43:00,35.0,-99.9,-100.00,SW,225,5.0,5.0,-999,-99.99,,,0.00,,2013-02-02 16:43:00,
2013-02-02 08:52:00,36.0,-99.9,-100.00,SW,225,6.0,6.0,-999,-99.99,,,0.00,,2013-02-02 16:52:00,
2013-02-02 09:03:00,36.0,-99.9,-100.00,SW,225,6.0,6.0,-999,-99.99,,,0.00,,2013-02-02 17:03:00,
2013-02-02 09:12:00,37.0,-99.9,-100.00,SW,225,5.0,5.0,-999,-99.99,,,0.00,,2013-02-02 17:12:00,
2013-02-02 09:23:00,37.0,-99.9,-100.00,SW,225,5.0,5.0,-999,-99.99,,,0.00,,2013-02-02 17:23:00,
2013-02-02 09:33:00,37.0,-99.9,-100.00,SW,225,4.0,4.0,-999,-99.99,,,0.00,,2013-02-02 17:33:00,
2013-02-02 09:42:00,38.0,-99.9,-100.00,SW,225,6.0,6.0,-999,-99.99,,,0.00,,2013-02-02 17:42:00,
2013-02-02 09:53:00,38.0,-99.9,-100.00,SW,225,10.0,10.0,-999,-99.99,,,0.00,,2013-02-02 17:53:00,
2013-02-02 10:03:00,38.0,-99.9,-100.00,SW,225,10.0,10.0,-999,-99.99,,,0.00,,2013-02-02 18:03:00,
2013-02-02 10:12:00,38.0,-99.9,-100.00,SW,225,10.0,10.0,-999,-99.99,,,0.00,,2013-02-02 18:12:00,
2013-02-02 10:22:00,38.0,-99.9,-100.00,SW,225,10.0,10.0,-999,-99.99,,,0.00,,2013-02-02 18:22:00,
2013-02-02 10:32:00,39.0,-99.9,-100.00,SW,225,12.0,12.0,-999,-99.99,,,0.00,,2013-02-02 18:32:00,
2013-02-02 10:42:00,40.0,-99.9,-100.00,SW,225,10.0,10.0,-999,-99.99,,,0.00,,2013-02-02 18:42:00,
2013-02-02 10:52:00,40.0,-99.9,-100.00,SW,225,10.0,10.0,-999,-99.99,,,0.00,,2013-02-02 18:52:00,
2013-02-02 11:02:00,40.0,-99.9,-100.00,SW,225,10.0,10.0,-999,-99.99,,,0.00,,2013-02-02 19:02:00,
2013-02-02 11:12:00,41.0,-99.9,-100.00,SW,225,7.0,7.0,-999,-99.99,,,0.00,,2013-02-02 19:12:00,
2013-02-02 11:22:00,41.0,-99.9,-100.00,SW,225,7.0,7.0,-999,-99.99,,,0.00,,2013-02-02 19:22:00,
2013-02-02 11:33:00,41.0,-99.9,-100.00,South,180,8.0,8.0,-999,-99.99,,,0.00,,2013-02-02 19:33:00,
2013-02-02 11:42:00,41.0,-99.9,-100.00,SW,225,9.0,9.0,-999,-99.99,,,0.00,,2013-02-02 19:42:00,
2013-02-02 11:52:00,41.0,-99.9,-100.00,SW,225,9.0,9.0,-999,-99.99,,,0.00,,2013-02-02 19:52:00,
2013-02-02 12:02:00,43.0,-99.9,-100.00,SW,225,5.0,5.0,-999,-99.99,,,0.00,,2013-02-02 20:02:00,
2013-02-02 12:12:00,44.0,-99.9,-100.00,SW,225,4.0,4.0,-999,-99.99,,,0.00,,2013-02-02 20:12:00,
2013-02-02 12:22:00,44.0,-99.9,-100.00,SW,225,4.0,4.0,-999,-99.99,,,0.00,,2013-02-02 20:22:00,
2013-02-02 12:32:00,44.0,-99.9,-100.00,SW,225,6.0,6.0,-999,-99.99,,,0.00,,2013-02-02 20:32:00,
2013-02-02 12:42:00,45.0,-99.9,-100.00,SW,225,6.0,6.0,-999,-99.99,,,0.00,,2013-02-02 20:42:00,
2013-02-02 12:52:00,45.0,-99.9,-100.00,SW,225,6.0,6.0,-999,-99.99,,,0.00,,2013-02-02 20:52:00,
2013-02-02 13:02:00,47.0,-99.9,-100.00,South,180,6.0,6.0,-999,-99.99,,,0.00,,2013-02-02 21:02:00,
2013-02-02 13:11:00,48.0,-99.9,-100.00,SW,225,5.0,5.0,-999,-99.99,,,0.00,,2013-02-02 21:11:00,
2013-02-02 13:22:00,48.0,-99.9,-100.00,SW,225,5.0,5.0,-999,-99.99,,,0.00,,2013-02-02 21:22:00,
2013-02-02 13:32:00,50.0,-99.9,-100.00,SW,225,3.0,3.0,-999,-99.99,,,0.00,,2013-02-02 21:32:00,
2013-02-02 13:43:00,49.0,-99.9,-100.00,SW,225,8.0,8.0,-999,-99.99,,,0.00,,2013-02-02 21:43:00,
2013-02-02 13:52:00,49.0,-99.9,-100.00,SW,225,8.0,8.0,-999,-99.99,,,0.00,,2013-02-02 21:52:00,
2013-02-02 14:03:00,49.0,-99.9,-100.00,SW,225,4.0,4.0,-999,-99.99,,,0.00,,2013-02-02 22:03:00,
2013-02-02 14:12:00,49.0,-99.9,-100.00,South,180,5.0,5.0,-999,-99.99,,,0.00,,2013-02-02 22:12:00,
2013-02-02 14:22:00,49.0,-99.9,-100.00,South,180,5.0,5.0,-999,-99.99,,,0.00,,2013-02-02 22:22:00,
2013-02-02 14:32:00,49.0,-99.9,-100.00,South,180,8.0,8.0,-999,-99.99,,,0.00,,2013-02-02 22:32:00,
2013-02-02 14:42:00,48.0,-99.9,-100.00,South,180,2.0,2.0,-999,-99.99,,,0.00,,2013-02-02 22:42:00,
2013-02-02 14:52:00,49.0,-99.9,-100.00,South,180,3.0,3.0,-999,-99.99,,,0.00,,2013-02-02 22:52:00,
2013-02-02 15:02:00,49.0,-99.9,-100.00,South,180,3.0,3.0,-999,-99.99,,,0.00,,2013-02-02 23:02:00,
2013-02-02 15:11:00,48.0,-99.9,-100.00,SW,225,3.0,3.0,-999,-99.99,,,0.00,,2013-02-02 23:11:00,
2013-02-02 15:22:00,48.0,-99.9,-100.00,SW,225,3.0,3.0,-999,-99.99,,,0.00,,2013-02-02 23:22:00,
2013-02-02 15:33:00,48.0,-99.9,-100.00,South,180,3.0,3.0,-999,-99.99,,,0.00,,2013-02-02 23:33:00,
2013-02-02 15:42:00,49.0,-99.9,-100.00,North,-999,0.0,0.0,-999,-99.99,,,0.00,,2013-02-02 23:42:00,
2013-02-02 15:52:00,49.0,-99.9,-100.00,North,-999,0.0,0.0,-999,-99.99,,,0.00,,2013-02-02 23:52:00,
2013-02-02 16:02:00,49.0,-99.9,-100.00,South,180,3.0,3.0,-999,-99.99,,,0.00,,2013-02-03 00:02:00,
2013-02-02 16:11:00,46.0,-99.9,-100.00,South,180,5.0,5.0,-999,-99.99,,,0.00,,2013-02-03 00:11:00,
2013-02-02 16:22:00,46.0,-99.9,-100.00,South,180,5.0,5.0,-999,-99.99,,,0.00,,2013-02-03 00:22:00,
2013-02-02 16:32:00,46.0,-99.9,-100.00,SW,225,5.0,5.0,-999,-99.99,,,0.00,,2013-02-03 00:32:00,
2013-02-02 16:42:00,45.0,-99.9,-100.00,North,-999,0.0,0.0,-999,-99.99,,,0.00,,2013-02-03 00:42:00,
2013-02-02 16:52:00,45.0,-99.9,-100.00,North,-999,0.0,0.0,-999,-99.99,,,0.00,,2013-02-03 00:52:00,
2013-02-02 17:02:00,45.0,-99.9,-100.00,South,180,1.0,1.0,-999,-99.99,,,0.00,,2013-02-03 01:02:00,
2013-02-02 17:11:00,43.0,-99.9,-100.00,SW,225,3.0,3.0,-999,-99.99,,,0.00,,2013-02-03 01:11:00,
2013-02-02 17:22:00,43.0,-99.9,-100.00,SW,225,3.0,3.0,-999,-99.99,,,0.00,,2013-02-03 01:22:00,
2013-02-02 17:32:00,41.0,-99.9,-100.00,SW,225,4.0,4.0,-999,-99.99,,,0.00,,2013-02-03 01:32:00,
2013-02-02 17:42:00,39.0,-99.9,-100.00,SW,225,3.0,3.0,-999,-99.99,,,0.00,,2013-02-03 01:42:00,
2013-02-02 17:52:00,39.0,-99.9,-100.00,SW,225,3.0,3.0,-999,-99.99,,,0.00,,2013-02-03 01:52:00,
2013-02-02 18:01:00,39.0,-99.9,-100.00,SW,225,2.0,2.0,-999,-99.99,,,0.00,,2013-02-03 02:01:00,
2013-02-02 18:11:00,39.0,-99.9,-100.00,SW,225,4.0,4.0,-999,-99.99,,,0.00,,2013-02-03 02:11:00,
2013-02-02 18:22:00,39.0,-99.9,-100.00,SW,225,4.0,4.0,-999,-99.99,,,0.00,,2013-02-03 02:22:00,
2013-02-02 18:32:00,38.0,-99.9,-100.00,SW,225,5.0,5.0,-999,-99.99,,,0.00,,2013-02-03 02:32:00,
2013-02-02 18:42:00,37.0,-99.9,-100.00,South,180,4.0,4.0,-999,-99.99,,,0.00,,2013-02-03 02:42:00,
2013-02-02 18:53:00,37.0,-99.9,-100.00,South,180,4.0,4.0,-999,-99.99,,,0.00,,2013-02-03 02:53:00,
2013-02-02 19:02:00,37.0,-99.9,-100.00,SW,225,5.0,5.0,-999,-99.99,,,0.00,,2013-02-03 03:02:00,
2013-02-02 19:11:00,37.0,-99.9,-100.00,SW,225,5.0,5.0,-999,-99.99,,,0.00,,2013-02-03 03:11:00,
2013-02-02 19:22:00,37.0,-99.9,-100.00,SW,225,5.0,5.0,-999,-99.99,,,0.00,,2013-02-03 03:22:00,
2013-02-02 19:32:00,36.0,-99.9,-100.00,SW,225,6.0,6.0,-999,-99.99,,,0.00,,2013-02-03 03:32:00,
2013-02-02 19:42:00,36.0,-99.9,-100.00,SW,225,5.0,5.0,-999,-99.99,,,0.00,,2013-02-03 03:42:00,
2013-02-02 19:52:00,36.0,-99.9,-100.00,SW,225,5.0,5.0,-999,-99.99,,,0.00,,2013-02-03 03:52:00,
2013-02-02 20:02:00,37.0,-99.9,-100.00,SW,225,4.0,4.0,-999,-99.99,,,0.00,,2013-02-03 04:02:00,
2013-02-02 20:12:00,36.0,-99.9,-100.00,SW,225,4.0,4.0,-999,-99.99,,,0.00,,2013-02-03 04:12:00,
2013-02-02 20:22:00,36.0,-99.9,-100.00,SW,225,8.0,8.0,-999,-99.99,,,0.00,,2013-02-03 04:22:00,
2013-02-02 20:32:00,36.0,-99.9,-100.00,SW,225,8.0,8.0,-999,-99.99,,,0.00,,2013-02-03 04:32:00,
2013-02-02 20:42:00,34.0,-99.9,-100.00,SW,225,6.0,6.0,-999,-99.99,,,0.00,,2013-02-03 04:42:00,
2013-02-02 20:52:00,34.0,-99.9,-100.00,SW,225,6.0,6.0,-999,-99.99,,,0.00,,2013-02-03 04:52:00,
2013-02-02 21:04:00,34.0,-99.9,-100.00,South,180,5.0,5.0,-999,-99.99,,,0.00,,2013-02-03 05:04:00,
2013-02-02 21:12:00,34.0,-99.9,-100.00,South,180,3.0,3.0,-999,-99.99,,,0.00,,2013-02-03 05:12:00,
2013-02-02 21:23:00,34.0,-99.9,-100.00,South,180,3.0,3.0,-999,-99.99,,,0.00,,2013-02-03 05:23:00,
2013-02-02 21:32:00,35.0,-99.9,-100.00,SW,225,3.0,3.0,-999,-99.99,,,0.00,,2013-02-03 05:32:00,
2013-02-02 21:42:00,38.0,-99.9,-100.00,SW,225,4.0,4.0,-999,-99.99,,,0.00,,2013-02-03 05:42:00,
2013-02-02 21:53:00,38.0,-99.9,-100.00,SW,225,4.0,4.0,-999,-99.99,,,0.00,,2013-02-03 05:53:00,
2013-02-02 22:02:00,39.0,-99.9,-100.00,South,180,2.0,2.0,-999,-99.99,,,0.00,,2013-02-03 06:02:00,
2013-02-02 22:11:00,42.0,-99.9,-100.00,SW,225,7.0,7.0,-999,-99.99,,,0.00,,2013-02-03 06:11:00,
2013-02-02 22:22:00,42.0,-99.9,-100.00,SW,225,9.0,9.0,-999,-99.99,,,0.00,,2013-02-03 06:22:00,
2013-02-02 22:32:00,42.0,-99.9,-100.00,SW,225,9.0,9.0,-999,-99.99,,,0.00,,2013-02-03 06:32:00,
2013-02-02 22:42:00,42.0,-99.9,-100.00,SW,225,6.0,6.0,-999,-99.99,,,0.00,,2013-02-03 06:42:00,
2013-02-02 22:52:00,42.0,-99.9,-100.00,SW,225,6.0,6.0,-999,-99.99,,,0.00,,2013-02-03 06:52:00,
2013-02-02 23:02:00,41.0,-99.9,-100.00,SW,225,8.0,8.0,-999,-99.99,,,0.00,,2013-02-03 07:02:00,
2013-02-02 23:11:00,38.0,-99.9,-100.00,SW,225,5.0,5.0,-999,-99.99,,,0.00,,2013-02-03 07:11:00,
2013-02-02 23:22:00,38.0,-99.9,-100.00,SW,225,5.0,5.0,-999,-99.99,,,0.00,,2013-02-03 07:22:00,
2013-02-02 23:32:00,36.0,-99.9,-100.00,SW,225,5.0,5.0,-999,-99.99,,,-99.99,,2013-02-03 07:32:00,
2013-02-02 23:42:00,37.0,-99.9,-100.00,SW,225,8.0,8.0,-999,-99.99,,,0.00,,2013-02-03 07:42:00,
2013-02-02 23:53:00,37.0,-99.9,-100.00,SW,225,8.0,8.0,-999,-99.99,,,0.00,,2013-02-03 07:53:00,